COSMOS 249 DEB, 3794

Orbit data source: Space-Track

COSMOS 249 DEB, 3794 is space debris in LEO originally from a launch on Sun, 20 Oct 1968 UTC launched from the Tyuratam Missile And Space Complex (TTMTR). Debris objects in space refer to the collection of defunct objects orbiting the Earth. Examples of debris include non-operational satellites, rocket bodies, and fragments generated from explosions, collisions, or faulty payload assembly.

Loading next visibility...
Identifier
3794, 1968-091BB
Orbit
LEO
Country
Flag of CISCIS
Related business
Manufacturer
Unknown
Mission
Spacecraft
Bus & Motor
Unknown
Mass
Unknown
Launch date (UTC)
1968-10-20 (57 years ago)
Launch vehicle
Unknown
Launch site
Tyuratam Missile And Space Complex (TTMTR)
Object type
Payload
Rocket body
Debris
Shape & HBR
Unknown shape, 0.1 m
Radar Cross Section
Small (<0.1 m²)

Expand to show TLE details & history
Last TLE update: 18 hours ago

TLE from 18 hours ago
0 COSMOS 249 DEB
1 03794U 68091BB  25293.87501353  .00002196  00000-0  19010-2 0  9991
2 03794  62.2664 206.4042 0586388 193.6974 164.7517 13.29375650678245
Epoch: 2025-10-20T21:00Z
TLE epoch observation values (Epoch: 2025-10-20T21:00:01.168Z)
Latitude
-0.00001°
Longitude
-138.17173°
Altitude
1,578.303 km
Speed
6.876 km/s
True Right ascension
13h 45m 37s
True Declination
0° 00' 00"
Sunlit
Object was in daylight at epoch
Visualization orbit readout
Latitude
Unknown
Longitude
Unknown
Altitude
Unknown
Speed
Unknown
Apparent Right ascension
Unknown
Apparent Declination
Unknown
Sunlit
N/A
Visualization observer readout
Local Sidereal Time
10:26:41
Azimuth
Unknown
Elevation
Unknown
Doppler factor
Unknown
Orbital elements
Apogee altitude
1,589.423 km
Perigee altitude
706.765 km
Semi-major axis
7,526.231 km
Eccentricity
0.05864
Inclination
62.2664°
RAAN
206.4042°
Arg. of periapsis
193.6974°
True anomaly
166.40172°
Mean anomaly
164.7517°
Eccentric anomaly
165.58792°
Mean motion
3.32412 °/min
Orbital period
108.3 mins
BSTAR
0.001901
Loading maneuver chart data...
Computing Atmospheric mass density...

Documentation

Showing up to 5 results
|